Weather History for San Angelo, TX

Change the Weather History Date:

Wednesday, March 26, 2014

  Actual Average Record
Temperature  
Mean Temperature 56 °F 60 °F  
Max Temperature 65 °F 74 °F 91 °F (2000)
Min Temperature 47 °F 47 °F 22 °F (1955)
Degree Days  
Heating Degree Days 9 6  
Month to date heating degree days 277 230  
Since 1 July heating degree days 2397 2191  
Cooling Degree Days 0 2  
Month to date cooling degree days 28 26  
Year to date cooling degree days 31 31  
Growing Degree Days 5 (Base 50)    
Moisture  
Dew Point 45 °F    
Average Humidity 58    
Maximum Humidity 77    
Minimum Humidity 38    
Precipitation  
Precipitation 0.01 in 0.05 in 1.22 in (2007)
Month to date precipitation 0.05 1.28  
Year to date precipitation 0.11 3.56  
Snow  
Snow 0.00 in 0.00 in 0.00 in (2002)
Month to date snowfall T 0.1  
Since 1 July snowfall 1.6 2.2  
Snow Depth 0.00 in    
Sea Level Pressure  
Sea Level Pressure 29.93 in    
Wind  
Wind Speed 20 mph (South)    
Max Wind Speed 35 mph    
Max Gust Speed 46 mph    
Visibility 10 miles    
Events      
T = Trace of Precipitation, MM = Missing Value Source: NWS Daily Summary

Daily Weather History Graph

Daily Weather History Graph

Search for Another Location

Airport:

Trip Planner

Search our weather history database for the weather conditions in past years. The results will help you decide how hot, cold, wet, or windy it might be!

Date:

Astronomy

Mar. 26, 2014 Rise Set
Actual Time 7:38 AM CDT 7:57 PM CDT
Civil Twilight 7:13 AM CDT 8:21 PM CDT
Nautical Twilight 6:45 AM CDT 8:50 PM CDT
Astronomical Twilight 6:16 AM CDT 9:19 PM CDT
Moon 4:32 AM CDT (3/26) 3:52 PM CDT (3/26)
Length of Visible Light 13h 07m
Length of Day
12h 19m
Waning Crescent, 21% of the Moon is Illuminated
Mar 26
Waning Crescent
Mar 30
New
Apr 7
First Quarter
Apr 15
Full
Apr 22
Last Quarter

Hourly Weather History & Observations

Time (CDT) Temp. Dew Point Humidity Pressure Visibility Wind Dir Wind Speed Gust Speed Precip Events Conditions
12:51 AM 48.0 °F 30.9 °F 52% 30.09 in 10.0 mi East 6.9 mph - N/A   Clear
1:51 AM 46.9 °F 32.0 °F 56% 30.07 in 10.0 mi East 5.8 mph - N/A   Clear
2:51 AM 55.0 °F 36.0 °F 49% 30.02 in 10.0 mi SE 8.1 mph - N/A   Clear
3:51 AM 57.0 °F 37.0 °F 47% 30.00 in 10.0 mi SSE 9.2 mph - N/A   Mostly Cloudy
4:51 AM 55.9 °F 39.9 °F 55% 29.98 in 10.0 mi South 10.4 mph - 0.01 in   Mostly Cloudy
5:51 AM 55.0 °F 39.9 °F 57% 29.97 in 10.0 mi South 17.3 mph 23.0 mph N/A   Overcast
6:51 AM 55.0 °F 37.0 °F 51% 29.98 in 10.0 mi South 13.8 mph - 0.00 in   Overcast
7:51 AM 55.0 °F 30.0 °F 38% 29.99 in 10.0 mi SSE 18.4 mph 28.8 mph N/A   Overcast
8:51 AM 55.9 °F 35.1 °F 45% 29.98 in 10.0 mi South 15.0 mph - N/A   Overcast
9:10 AM 55.9 °F 39.0 °F 53% 29.99 in 10.0 mi South 12.7 mph 23.0 mph N/A   Overcast
9:51 AM 55.9 °F 46.9 °F 72% 29.99 in 10.0 mi South 17.3 mph 28.8 mph N/A   Overcast
10:51 AM 57.0 °F 48.9 °F 74% 29.98 in 10.0 mi South 20.7 mph 28.8 mph N/A   Overcast
11:51 AM 57.9 °F 50.0 °F 75% 29.98 in 10.0 mi South 20.7 mph 28.8 mph N/A   Overcast
12:51 PM 60.1 °F 50.0 °F 69% 29.96 in 10.0 mi South 21.9 mph 32.2 mph N/A   Overcast
1:51 PM 62.1 °F 51.1 °F 67% 29.94 in 10.0 mi South 23.0 mph 36.8 mph N/A   Overcast
2:51 PM 63.0 °F 51.1 °F 65% 29.90 in 10.0 mi South 26.5 mph 44.9 mph N/A   Overcast
3:51 PM 63.0 °F 51.1 °F 65% 29.86 in 10.0 mi South 28.8 mph 38.0 mph N/A   Overcast
4:51 PM 63.0 °F 52.0 °F 67% 29.84 in 10.0 mi South 29.9 mph 40.3 mph N/A   Mostly Cloudy
5:51 PM 63.0 °F 52.0 °F 67% 29.82 in 10.0 mi South 25.3 mph 40.3 mph N/A   Overcast
6:51 PM 62.1 °F 52.0 °F 70% 29.82 in 10.0 mi South 19.6 mph 35.7 mph N/A   Overcast
7:51 PM 62.1 °F 52.0 °F 70% 29.81 in 10.0 mi South 18.4 mph 29.9 mph N/A   Overcast
8:51 PM 62.1 °F 53.1 °F 72% 29.80 in 10.0 mi South 21.9 mph 32.2 mph N/A   Overcast
9:51 PM 62.1 °F 53.1 °F 72% 29.81 in 10.0 mi South 24.2 mph 39.1 mph N/A   Overcast
10:51 PM 62.1 °F 54.0 °F 75% 29.81 in 10.0 mi South 27.6 mph 38.0 mph N/A   Overcast
11:51 PM 62.1 °F 54.0 °F 75% 29.79 in 10.0 mi South 24.2 mph 31.1 mph N/A   Overcast